This is the latest recevied weather packets stored in our database for station/object OE3BIA-11. If no packets are shown the sender has not sent any weather packets the latest 1 day(s).
| Time | Temp. | Humidity | Pressure | Rain* | Wind** | Luminosity | Snow |
|---|---|---|---|---|---|---|---|
| 1778003085 | 21.67° C | 4% | - | - | 3.13 m/s, 90° | - | - |
| 1778002782 | 21.67° C | 4% | - | - | 3.13 m/s, 90° | - | - |
| 1778002479 | 21.67° C | 4% | - | - | 3.13 m/s, 90° | - | - |
| 1778002177 | 22.22° C | 4% | - | - | 3.13 m/s, 90° | - | - |
| 1778001874 | 22.22° C | 4% | - | - | 3.58 m/s, 90° | - | - |
| 1778001571 | 22.78° C | 4% | - | - | 3.58 m/s, 90° | - | - |
| 1778001268 | 22.78° C | 4% | - | - | 3.58 m/s, 90° | - | - |
| 1778000965 | 22.78° C | 4% | - | - | 4.02 m/s, 90° | - | - |
| 1778000663 | 23.33° C | 4% | - | - | 4.02 m/s, 90° | - | - |
| 1778000360 | 23.33° C | 3% | - | - | 3.13 m/s, 90° | - | - |
| 1778000057 | 23.89° C | 4% | - | - | 3.58 m/s, 90° | - | - |
| 1777999754 | 23.89° C | 3% | - | - | 2.68 m/s, 90° | - | - |
| 1777999452 | 23.89° C | 3% | - | - | 2.68 m/s, 90° | - | - |
| 1777999149 | 23.89° C | 3% | - | - | 2.68 m/s, 90° | - | - |
| 1777998543 | 23.89° C | 3% | - | - | 3.58 m/s, 90° | - | - |
| 1777998240 | 23.89° C | 4% | - | - | 2.68 m/s, 90° | - | - |
| 1777997632 | 23.89° C | 3% | - | - | 2.24 m/s, 90° | - | - |
| 1777997330 | 24.44° C | 3% | - | - | 2.68 m/s, 90° | - | - |
| 1777997027 | 25° C | 3% | - | - | 3.13 m/s, 90° | - | - |
| 1777996724 | 24.44° C | 3% | - | - | 3.13 m/s, 90° | - | - |
| 1777996421 | 24.44° C | 3% | - | - | 3.58 m/s, 90° | - | - |
| 1777996118 | 24.44° C | 3% | - | - | 4.02 m/s, 90° | - | - |
| 1777995816 | 24.44° C | 3% | - | - | 4.47 m/s, 90° | - | - |
| 1777995513 | 25° C | 3% | - | - | 5.81 m/s, 90° | - | - |
| 1777994905 | 25° C | 3% | - | - | 6.26 m/s, 90° | - | - |
* Rain since midnight (hover to see other rain measurements)
** Current wind speed in m/s (hover to see current wind gust speed)